User: anonymous   Login
Location: Leipzig
(51.3392°N, 12.3528°E)
Time: 20:34:09
(UTC+01:00)
Language:

ISS - Orbit

View from above orbital plane
View from above orbital plane
View from above satellite
View from above satellite

Ground track
Ground track

The orbit data is extracted from the following two-line orbital elements,

1 25544U 98067A   17324.03015331  .00016717  00000-0  10270-3 0  9055
2 25544  51.6394 341.4266 0003792 132.7619 227.3853 15.54175283  5989
Epoch (UTC): 20 November 2017 00:43:25
Eccentricity: 0.0003792
inclination: 51.6394°
perigee height: 402 km
apogee height: 407 km
right ascension of ascending node: 341.4266°
argument of perigee: 132.7619°
revolutions per day: 15.54175283
mean anomaly at epoch: 227.3853°
orbit number at epoch: 598

The dashed part of the orbit path shows where the satellite is in the earth's shadow,  

DLR